Meteo pe oră la Almaly

Astăzi, 19 Ianuarie, Marţi

Timp Temperatura Precipitaţii Vânt Presiune Umiditate
00:00 -14°C° 0.1 mm 1 m/s 740 mmHg 92%
01:00 -13°C° 0.1 mm 1 m/s 740 mmHg 94%
02:00 -13°C° 0.3 mm 1 m/s 739 mmHg 94%
03:00 -13°C° 0.3 mm 1 m/s 739 mmHg 94%
04:00 -12°C° 0 mm 1 m/s 739 mmHg 94%
05:00 -14°C° 0.1 mm 2 m/s 738 mmHg 93%
06:00 -14°C° 0.1 mm 2 m/s 738 mmHg 91%
07:00 -13°C° 0.1 mm 2 m/s 737 mmHg 90%
08:00 -13°C° 0.1 mm 2 m/s 738 mmHg 89%
09:00 -13°C° 0.1 mm 2 m/s 738 mmHg 88%
10:00 -13°C° 0 mm 3 m/s 738 mmHg 86%
11:00 -13°C° 0.3 mm 3 m/s 737 mmHg 88%
12:00 -14°C° 0.3 mm 4 m/s 737 mmHg 90%
13:00 -14°C° 0.3 mm 5 m/s 737 mmHg 91%
14:00 -14°C° 0.2 mm 4 m/s 737 mmHg 92%
15:00 -13°C° 0.2 mm 3 m/s 737 mmHg 93%
16:00 -12°C° 0 mm 2 m/s 737 mmHg 93%
17:00 -13°C° 0.1 mm 2 m/s 736 mmHg 93%
18:00 -13°C° 0.1 mm 2 m/s 736 mmHg 94%
19:00 -14°C° 0.1 mm 2 m/s 736 mmHg 94%
20:00 -14°C° 0.2 mm 2 m/s 736 mmHg 94%
21:00 -15°C° 0.2 mm 2 m/s 737 mmHg 94%
22:00 -13°C° 0.2 mm 1 m/s 737 mmHg 95%
23:00 -14°C° 0 mm 1 m/s 737 mmHg 94%

Mâine, 20 Ianuarie, Miercuri

Timp Temperatura Precipitaţii Vânt Presiune Umiditate
00:00 -15°C° 0 mm 1 m/s 737 mmHg 94%
01:00 -15°C° 0 mm 1 m/s 737 mmHg 94%
02:00 -18°C° 0 mm 2 m/s 737 mmHg 95%
03:00 -18°C° 0 mm 2 m/s 737 mmHg 95%
04:00 -18°C° 0 mm 2 m/s 737 mmHg 96%
05:00 -19°C° 0 mm 2 m/s 738 mmHg 97%
06:00 -19°C° 0 mm 2 m/s 738 mmHg 97%
07:00 -20°C° 0 mm 2 m/s 738 mmHg 97%
08:00 -20°C° 0 mm 2 m/s 738 mmHg 97%
09:00 -22°C° 0 mm 3 m/s 738 mmHg 96%
10:00 -23°C° 0 mm 3 m/s 739 mmHg 96%
11:00 -22°C° 0 mm 3 m/s 739 mmHg 95%
12:00 -22°C° 0 mm 3 m/s 739 mmHg 95%
13:00 -22°C° 0 mm 3 m/s 739 mmHg 94%
14:00 -22°C° 0.1 mm 3 m/s 740 mmHg 94%
15:00 -22°C° 0.1 mm 3 m/s 740 mmHg 94%
16:00 -22°C° 0.1 mm 3 m/s 740 mmHg 95%
17:00 -23°C° 0 mm 3 m/s 740 mmHg 95%
18:00 -24°C° 0 mm 3 m/s 741 mmHg 96%
19:00 -24°C° 0 mm 3 m/s 741 mmHg 97%
20:00 -24°C° 0 mm 3 m/s 741 mmHg 97%
21:00 -24°C° 0 mm 2 m/s 741 mmHg 97%
22:00 -24°C° 0 mm 2 m/s 741 mmHg 98%
23:00 -24°C° 0 mm 2 m/s 741 mmHg 98%

Poimâine, 21 Ianuarie, Joi

Timp Temperatura Precipitaţii Vânt Presiune Umiditate
00:00 -24°C° 0 mm 2 m/s 741 mmHg 98%
01:00 -25°C° 0 mm 3 m/s 741 mmHg 98%
02:00 -24°C° 0 mm 2 m/s 741 mmHg 98%
03:00 -25°C° 0 mm 2 m/s 741 mmHg 98%
04:00 -25°C° 0 mm 2 m/s 742 mmHg 98%
05:00 -25°C° 0 mm 2 m/s 742 mmHg 98%
06:00 -26°C° 0 mm 2 m/s 742 mmHg 98%
07:00 -26°C° 0 mm 2 m/s 742 mmHg 98%
08:00 -25°C° 0 mm 2 m/s 742 mmHg 97%
09:00 -25°C° 0 mm 2 m/s 742 mmHg 97%
10:00 -25°C° 0 mm 2 m/s 742 mmHg 97%
11:00 -24°C° 0 mm 2 m/s 742 mmHg 96%
12:00 -24°C° 0 mm 3 m/s 742 mmHg 96%
13:00 -23°C° 0 mm 3 m/s 742 mmHg 95%
14:00 -23°C° 0 mm 3 m/s 741 mmHg 96%
15:00 -24°C° 0 mm 3 m/s 741 mmHg 96%
16:00 -24°C° 0 mm 3 m/s 741 mmHg 96%
17:00 -24°C° 0.1 mm 3 m/s 741 mmHg 96%
18:00 -24°C° 0.1 mm 3 m/s 741 mmHg 97%
19:00 -25°C° 0.1 mm 3 m/s 741 mmHg 97%
20:00 -25°C° 0.1 mm 3 m/s 741 mmHg 97%
21:00 -25°C° 0.1 mm 3 m/s 741 mmHg 97%
22:00 -25°C° 0.1 mm 3 m/s 741 mmHg 97%
23:00 -24°C° 0.1 mm 3 m/s 741 mmHg 97%

22 Ianuarie, Vineri

Timp Temperatura Precipitaţii Vânt Presiune Umiditate
00:00 -24°C° 0.1 mm 3 m/s 741 mmHg 97%
01:00 -24°C° 0.1 mm 3 m/s 741 mmHg 97%
02:00 -24°C° 0.1 mm 3 m/s 741 mmHg 97%
03:00 -24°C° 0.1 mm 3 m/s 741 mmHg 96%
04:00 -24°C° 0.1 mm 3 m/s 740 mmHg 96%
05:00 -24°C° 0 mm 3 m/s 741 mmHg 96%
06:00 -24°C° 0 mm 3 m/s 741 mmHg 96%
07:00 -24°C° 0 mm 3 m/s 741 mmHg 96%
08:00 -23°C° 0.1 mm 3 m/s 741 mmHg 96%
09:00 -23°C° 0.1 mm 3 m/s 741 mmHg 96%
10:00 -23°C° 0.1 mm 3 m/s 741 mmHg 96%
11:00 -22°C° 0.1 mm 3 m/s 740 mmHg 95%
12:00 -21°C° 0.1 mm 3 m/s 740 mmHg 94%
13:00 -19°C° 0.1 mm 3 m/s 740 mmHg 94%
14:00 -19°C° 0.1 mm 3 m/s 740 mmHg 94%
15:00 -19°C° 0.1 mm 3 m/s 740 mmHg 95%
16:00 -19°C° 0.1 mm 3 m/s 741 mmHg 95%
17:00 -19°C° 0.1 mm 3 m/s 741 mmHg 95%
18:00 -19°C° 0.1 mm 2 m/s 741 mmHg 96%
19:00 -19°C° 0.1 mm 2 m/s 742 mmHg 96%
20:00 -19°C° 0.1 mm 2 m/s 742 mmHg 96%
21:00 -19°C° 0.1 mm 2 m/s 742 mmHg 97%
22:00 -18°C° 0.1 mm 1 m/s 743 mmHg 97%
23:00 -18°C° 0 mm 1 m/s 743 mmHg 97%

23 Ianuarie, Sâmbătă

Timp Temperatura Precipitaţii Vânt Presiune Umiditate
00:00 -19°C° 0 mm 1 m/s 744 mmHg 97%
01:00 -20°C° 0 mm 1 m/s 744 mmHg 97%
02:00 -20°C° 0 mm 1 m/s 744 mmHg 97%
03:00 -20°C° 0 mm 1 m/s 745 mmHg 97%
04:00 -21°C° 0 mm 1 m/s 745 mmHg 96%
05:00 -21°C° 0 mm 1 m/s 746 mmHg 95%
06:00 -21°C° 0 mm 1 m/s 746 mmHg 94%
07:00 -20°C° 0 mm 1 m/s 747 mmHg 93%
08:00 -19°C° 0 mm 1 m/s 747 mmHg 92%
09:00 -20°C° 0 mm 2 m/s 747 mmHg 91%
10:00 -18°C° 0 mm 2 m/s 748 mmHg 89%
11:00 -17°C° 0 mm 2 m/s 747 mmHg 89%
12:00 -17°C° 0 mm 3 m/s 747 mmHg 89%
13:00 -16°C° 0 mm 3 m/s 747 mmHg 89%
14:00 -16°C° 0.3 mm 4 m/s 747 mmHg 90%
15:00 -16°C° 0.3 mm 4 m/s 746 mmHg 92%
16:00 -15°C° 0.3 mm 4 m/s 746 mmHg 94%
17:00 -15°C° 0.4 mm 4 m/s 746 mmHg 94%
18:00 -15°C° 0.4 mm 5 m/s 746 mmHg 94%
19:00 -15°C° 0.4 mm 5 m/s 746 mmHg 93%
20:00 -14°C° 0.4 mm 5 m/s 745 mmHg 94%
21:00 -14°C° 0.4 mm 5 m/s 745 mmHg 94%
22:00 -14°C° 0.4 mm 4 m/s 745 mmHg 94%
23:00 -12°C° 0.4 mm 4 m/s 744 mmHg 94%

24 Ianuarie, Duminică

Timp Temperatura Precipitaţii Vânt Presiune Umiditate
00:00 -11°C° 0.4 mm 4 m/s 744 mmHg 94%
01:00 -11°C° 0.4 mm 5 m/s 744 mmHg 94%
02:00 -9°C° 0.4 mm 4 m/s 743 mmHg 94%
03:00 -8°C° 0.4 mm 4 m/s 743 mmHg 95%
04:00 -7°C° 0.4 mm 4 m/s 743 mmHg 95%
05:00 -5°C° 0.5 mm 4 m/s 743 mmHg 96%
06:00 -3°C° 0.5 mm 4 m/s 743 mmHg 97%
07:00 -2°C° 0.5 mm 4 m/s 743 mmHg 98%
08:00 -2°C° 0.5 mm 4 m/s 743 mmHg 97%
09:00 -2°C° 0.5 mm 5 m/s 744 mmHg 97%
10:00 -2°C° 0.5 mm 5 m/s 744 mmHg 97%
11:00 -2°C° 0.4 mm 5 m/s 744 mmHg 97%
12:00 -2°C° 0.4 mm 5 m/s 744 mmHg 97%
13:00 -2°C° 0.4 mm 5 m/s 744 mmHg 98%
14:00 -2°C° 0.6 mm 5 m/s 744 mmHg 98%
15:00 -2°C° 0.6 mm 5 m/s 744 mmHg 98%
16:00 -2°C° 0.6 mm 5 m/s 744 mmHg 97%
17:00 -2°C° 0.9 mm 5 m/s 744 mmHg 97%
18:00 -2°C° 0.9 mm 5 m/s 745 mmHg 97%
19:00 -3°C° 0.9 mm 4 m/s 745 mmHg 97%
20:00 -3°C° 0.6 mm 4 m/s 745 mmHg 97%
21:00 -3°C° 0.6 mm 4 m/s 745 mmHg 97%
22:00 -3°C° 0.6 mm 4 m/s 746 mmHg 97%
23:00 -2°C° 0.6 mm 3 m/s 746 mmHg 97%
Arată mai mult

Formular de consimțământ

Meteoprog și furnizorii noștri de servicii pot stoca și accesa date personale, precum cookies, identificatori de dispozitiv sau alte tehnologii similare pe dispozitivul dumneavoastră și procesa astfel de date pentru a personaliza conținutul și reclamele, dar și pentru a oferi caracteristici de social media și pentru a analiza traficul.

  • Stocarea și/sau accesarea informațiilor pe dispozitivul dumneavoastră

    Cookies, identificatori de dispozitiv sau alte informații pot fi stocate sau accesate pe dispozitiv în scopurile indicate mai sus.

  • Reclame și conținut personalizat, evaluarea reclamelor și a conținutului, informații despre audiențe și dezvoltarea produselor

    Reclamele și conținutul pot fi personalizate pe baza unui profil. Pot fi adăugate date suplimentare pentru a personaliza mai bine reclamele și conținutul. Performanța reclamelor și conținutului poate fi măsurată. Pot fi obținute informații despre utilizatorii care au văzut reclamele și conținutul. Aceste date pot fi utilizate pentru a dezvolta sau îmbunătăți experiența utilizatorilor, sistemele și software-ul.

Dând clic pe ‘Sunt de acord’, permiteți utilizarea cookie-urilor menționate, a identificatorilor de dispozitiv, balizelor web sau altor tehnologii similare. Setările pot fi modificate din browser-ul dispozitivului dumneavoastră.

În anumite scopuri, interesele legitime pot prima asupra consimțământului. Puteți citi mai multe informații în acest sens în Politica privind Confidențialitatea Datelor și Cookie.